timestamp,wind_dir_avg,wind_spd_avg,wind_spd_max_dir,wind_spd_gust,battery_voltage,lat,long
2024-04-03 00:04:00+00:00,36.0,10.52,36.0,10.53,12.33,47.59359,-54.27349
2024-04-03 00:14:00+00:00,315.0,0.01,23.0,0.0,12.25,47.59359,-54.27349
2024-04-03 00:24:00+00:00,23.0,10.17,23.0,10.18,12.25,47.59359,-54.27349
2024-04-03 00:34:00+00:00,28.0,10.46,22.0,10.58,12.25,47.59359,-54.27349
2024-04-03 00:44:00+00:00,315.0,0.01,23.0,0.0,12.25,47.59359,-54.27349
2024-04-03 00:54:00+00:00,26.0,9.26,33.0,11.25,12.25,47.59359,-54.27349
2024-04-03 01:04:00+00:00,7.0,8.43,7.0,8.44,12.25,47.59359,-54.27349
2024-04-03 01:14:00+00:00,4.0,8.91,23.0,9.6,12.17,47.59359,-54.27349
2024-04-03 01:24:00+00:00,315.0,0.01,22.0,0.0,12.17,47.59359,-54.27349
2024-04-03 01:34:00+00:00,315.0,0.01,22.0,0.0,12.17,47.59359,-54.27349
2024-04-03 01:44:00+00:00,315.0,0.01,22.0,0.0,12.17,47.59359,-54.27349
2024-04-03 01:54:00+00:00,315.0,0.01,23.0,0.0,12.17,47.59359,-54.27349
2024-04-03 02:04:00+00:00,315.0,0.01,23.0,0.0,12.17,47.59359,-54.27349
2024-04-03 02:14:00+00:00,315.0,0.01,23.0,0.0,12.17,47.59359,-54.27349
2024-04-03 02:24:00+00:00,315.0,0.01,23.0,0.0,12.17,47.59359,-54.27349
2024-04-03 02:34:00+00:00,315.0,0.01,23.0,0.0,12.17,47.59359,-54.27349
2024-04-03 02:44:00+00:00,315.0,0.01,23.0,0.0,12.17,47.59359,-54.27349
2024-04-03 02:54:00+00:00,315.0,0.01,23.0,0.0,12.17,47.59359,-54.27349
2024-04-03 03:04:00+00:00,315.0,0.01,23.0,0.0,12.17,47.59359,-54.27349
2024-04-03 03:14:01+00:00,315.0,0.01,4.0,0.0,12.17,47.59359,-54.27349
2024-04-03 03:24:01+00:00,356.0,8.48,356.0,8.5,12.17,47.59359,-54.27349
2024-04-03 03:34:01+00:00,1.0,8.83,3.0,10.18,12.17,47.59359,-54.27349
2024-04-03 03:44:01+00:00,0.0,8.56,344.0,9.73,12.17,47.59359,-54.27349
2024-04-03 03:54:01+00:00,359.0,9.02,355.0,10.21,12.17,47.59359,-54.27349
2024-04-03 04:04:01+00:00,2.0,9.94,3.0,10.38,12.17,47.59359,-54.27349
2024-04-03 04:14:00+00:00,2.0,8.8,2.0,8.82,12.09,47.59359,-54.27349
2024-04-03 04:24:00+00:00,355.0,9.15,359.0,9.62,12.09,47.59359,-54.27349
2024-04-03 04:34:00+00:00,356.0,10.2,356.0,10.21,12.09,47.59359,-54.27349
2024-04-03 04:44:00+00:00,359.0,8.65,344.0,10.03,12.09,47.59359,-54.27349
2024-04-03 04:54:00+00:00,2.0,9.27,4.0,10.01,12.09,47.59359,-54.27349
2024-04-03 05:04:00+00:00,0.0,9.47,2.0,9.7,12.09,47.59359,-54.27349
2024-04-03 05:14:00+00:00,357.0,8.62,2.0,9.34,12.09,47.59359,-54.27349
2024-04-03 05:24:00+00:00,1.0,9.36,353.0,9.94,12.09,47.59359,-54.27349
2024-04-03 05:34:00+00:00,359.0,11.13,0.0,11.95,12.09,47.59359,-54.27349
2024-04-03 05:44:00+00:00,315.0,0.01,4.0,0.0,12.09,47.59359,-54.27349
2024-04-03 05:54:00+00:00,4.0,8.42,5.0,8.72,12.09,47.59359,-54.27349
2024-04-03 06:04:00+00:00,315.0,0.01,3.0,0.0,12.09,47.59359,-54.27349
2024-04-03 06:14:00+00:00,315.0,0.01,4.0,0.0,12.09,47.59359,-54.27349
2024-04-03 06:24:00+00:00,315.0,0.01,3.0,0.0,12.09,47.59359,-54.27349
2024-04-03 06:34:00+00:00,315.0,0.01,2.0,0.0,12.09,47.59359,-54.27349
2024-04-03 06:44:00+00:00,315.0,0.01,2.0,0.0,12.09,47.59359,-54.27349
2024-04-03 06:54:00+00:00,315.0,0.01,2.0,0.0,12.09,47.59359,-54.27349
2024-04-03 07:04:00+00:00,315.0,0.01,2.0,0.0,12.09,47.59359,-54.27349
2024-04-03 07:14:01+00:00,315.0,0.01,2.0,0.0,12.09,47.59359,-54.27349
2024-04-03 07:24:01+00:00,315.0,0.01,2.0,0.0,12.09,47.59359,-54.27349
2024-04-03 07:34:01+00:00,315.0,0.01,2.0,0.0,12.09,47.59359,-54.27349
2024-04-03 07:44:01+00:00,315.0,0.01,2.0,0.0,12.09,47.59359,-54.27349
2024-04-03 07:54:01+00:00,315.0,0.01,2.0,0.0,12.09,47.59359,-54.27349
2024-04-03 08:04:01+00:00,3.0,9.35,4.0,9.36,12.09,47.59359,-54.27349
2024-04-03 08:14:01+00:00,315.0,0.01,4.0,0.0,12.01,47.59359,-54.27349
2024-04-03 08:24:01+00:00,3.0,9.79,5.0,10.36,12.01,47.59359,-54.27349
2024-04-03 08:34:01+00:00,3.0,9.08,3.0,9.09,12.01,47.59359,-54.27349
2024-04-03 08:44:01+00:00,1.0,9.51,359.0,10.09,12.01,47.59359,-54.27349
2024-04-03 08:54:01+00:00,315.0,0.01,0.0,0.0,12.01,47.59359,-54.27349
2024-04-03 09:04:01+00:00,1.0,8.93,1.0,10.16,12.01,47.59359,-54.27349
2024-04-03 09:14:00+00:00,315.0,0.01,355.0,0.0,12.01,47.59359,-54.27349
2024-04-03 09:24:00+00:00,315.0,0.01,6.0,0.0,12.01,47.59359,-54.27349
2024-04-03 09:34:00+00:00,2.0,9.49,3.0,11.21,12.01,47.59359,-54.27349
2024-04-03 09:44:00+00:00,0.0,9.19,357.0,9.59,12.01,47.59359,-54.27349
2024-04-03 09:54:00+00:00,358.0,9.99,352.0,10.4,12.01,47.59359,-54.27349
2024-04-03 10:04:00+00:00,0.0,9.92,358.0,11.47,12.01,47.59359,-54.27349
2024-04-03 10:14:00+00:00,0.0,9.5,359.0,10.44,12.01,47.59359,-54.27349
2024-04-03 10:24:00+00:00,1.0,10.03,3.0,11.72,12.01,47.59359,-54.27349
2024-04-03 10:34:00+00:00,2.0,9.37,0.0,10.42,12.01,47.59359,-54.27349
2024-04-03 10:44:00+00:00,1.0,10.02,359.0,11.98,12.01,47.59359,-54.27349
2024-04-03 10:54:00+00:00,2.0,10.0,4.0,10.62,12.01,47.59359,-54.27349
2024-04-03 11:04:00+00:00,1.0,9.95,2.0,11.2,12.01,47.59359,-54.27349
2024-04-03 11:14:00+00:00,1.0,9.47,2.0,10.5,13.53,47.59359,-54.27349
2024-04-03 11:24:00+00:00,2.0,10.56,4.0,12.11,13.53,47.59359,-54.27349
2024-04-03 11:34:00+00:00,0.0,12.82,3.0,14.76,13.53,47.59359,-54.27349
2024-04-03 11:44:00+00:00,0.0,12.46,0.0,14.18,13.53,47.59359,-54.27349
2024-04-03 11:54:00+00:00,1.0,12.55,0.0,14.38,13.53,47.59359,-54.27349
2024-04-03 12:04:00+00:00,315.0,0.01,2.0,0.0,13.53,47.59359,-54.27349
2024-04-03 12:14:00+00:00,0.0,14.79,3.0,16.14,14.32,47.59359,-54.27349
2024-04-03 12:24:00+00:00,315.0,0.01,4.0,0.0,14.32,47.59359,-54.27349
2024-04-03 12:34:00+00:00,315.0,0.01,3.0,0.0,14.32,47.59359,-54.27349
2024-04-03 12:44:00+00:00,359.0,13.98,1.0,14.06,14.32,47.59359,-54.27349
2024-04-03 12:54:00+00:00,1.0,14.13,1.0,15.36,14.32,47.59359,-54.27349
2024-04-03 13:04:00+00:00,315.0,0.01,1.0,0.0,14.32,47.59359,-54.27349
2024-04-03 13:14:00+00:00,315.0,0.01,3.0,0.0,14.0,47.59359,-54.27349
2024-04-03 13:24:00+00:00,315.0,0.01,357.0,0.0,14.0,47.59359,-54.27349
2024-04-03 13:34:00+00:00,315.0,0.01,0.0,0.0,14.0,47.59359,-54.27349
2024-04-03 13:44:00+00:00,315.0,0.01,0.0,0.0,14.0,47.59359,-54.27349
2024-04-03 13:54:00+00:00,315.0,0.01,358.0,0.0,14.0,47.59359,-54.27349
2024-04-03 14:04:00+00:00,315.0,0.01,358.0,0.0,14.0,47.59359,-54.27349
2024-04-03 14:14:00+00:00,315.0,0.01,358.0,0.0,13.6,47.59359,-54.27349
2024-04-03 14:24:00+00:00,315.0,0.01,358.0,0.0,13.6,47.59359,-54.27349
2024-04-03 14:34:00+00:00,315.0,0.01,4.0,0.0,13.6,47.59359,-54.27349
2024-04-03 14:44:00+00:00,315.0,0.01,16.0,0.0,13.6,47.59359,-54.27349
2024-04-03 14:54:00+00:00,315.0,0.01,18.0,0.0,13.6,47.59359,-54.27349
2024-04-03 15:04:00+00:00,13.0,9.77,22.0,10.06,13.6,47.59359,-54.27349
2024-04-03 15:14:00+00:00,315.0,0.01,17.0,0.0,13.53,47.59359,-54.27349
2024-04-03 15:24:00+00:00,351.0,9.91,351.0,9.92,13.53,47.59359,-54.27349
2024-04-03 15:34:00+00:00,19.0,13.08,19.0,13.09,13.53,47.59359,-54.27349
2024-04-03 15:44:00+00:00,315.0,0.01,27.0,0.0,13.53,47.59359,-54.27349
2024-04-03 15:54:00+00:00,315.0,0.01,27.0,0.0,13.53,47.59359,-54.27349
2024-04-03 16:04:00+00:00,315.0,0.01,27.0,0.0,13.53,47.59359,-54.27349
2024-04-03 16:14:00+00:00,315.0,0.01,27.0,0.0,13.6,47.59359,-54.27349
2024-04-03 16:24:00+00:00,315.0,0.01,27.0,0.0,13.6,47.59359,-54.27349
2024-04-03 16:34:00+00:00,315.0,0.01,27.0,0.0,13.6,47.59359,-54.27349
2024-04-03 16:44:00+00:00,315.0,0.01,23.0,0.0,13.6,47.59359,-54.27349
2024-04-03 16:54:00+00:00,315.0,0.01,30.0,0.0,13.6,47.59359,-54.27349
2024-04-03 17:04:00+00:00,315.0,0.01,30.0,0.0,13.6,47.59359,-54.27349
2024-04-03 17:14:00+00:00,315.0,0.01,21.0,0.0,13.53,47.59359,-54.27349
2024-04-03 17:24:00+00:00,315.0,0.01,21.0,0.0,13.53,47.59359,-54.27349
2024-04-03 17:34:00+00:00,315.0,0.01,23.0,0.0,13.53,47.59359,-54.27349
2024-04-03 17:44:00+00:00,315.0,0.01,23.0,0.0,13.53,47.59359,-54.27349
2024-04-03 17:54:00+00:00,315.0,0.01,23.0,0.0,13.53,47.59359,-54.27349
2024-04-03 18:04:00+00:00,315.0,0.01,24.0,0.0,13.53,47.59359,-54.27349
2024-04-03 18:14:00+00:00,24.0,16.47,25.0,16.48,13.6,47.59359,-54.27349
2024-04-03 18:24:00+00:00,17.0,12.78,17.0,12.8,13.6,47.59359,-54.27349
2024-04-03 18:34:00+00:00,18.0,15.96,18.0,15.97,13.6,47.59359,-54.27349
2024-04-03 18:44:00+00:00,315.0,0.01,27.0,0.0,13.6,47.59359,-54.27349
2024-04-03 18:54:00+00:00,22.0,11.47,28.0,12.68,13.6,47.59359,-54.27349
2024-04-03 19:04:00+00:00,15.0,10.28,17.0,11.39,13.6,47.59359,-54.27349
2024-04-03 19:14:00+00:00,22.0,11.49,29.0,12.7,13.53,47.59359,-54.27349
2024-04-03 19:24:00+00:00,19.0,11.49,16.0,13.51,13.53,47.59359,-54.27349
2024-04-03 19:34:00+00:00,16.0,12.31,11.0,16.42,13.53,47.59359,-54.27349
2024-04-03 19:44:00+00:00,15.0,16.75,22.0,17.66,13.53,47.59359,-54.27349
2024-04-03 19:54:00+00:00,15.0,10.67,20.0,15.14,13.53,47.59359,-54.27349
2024-04-03 20:04:00+00:00,315.0,0.01,352.0,0.0,13.53,47.59359,-54.27349
2024-04-03 20:14:00+00:00,315.0,0.01,18.0,0.0,13.53,47.59359,-54.27349
2024-04-03 20:24:00+00:00,315.0,0.01,18.0,0.0,13.53,47.59359,-54.27349
2024-04-03 20:34:00+00:00,315.0,0.01,21.0,0.0,13.53,47.59359,-54.27349
2024-04-03 20:44:00+00:00,315.0,0.01,21.0,0.0,13.53,47.59359,-54.27349
2024-04-03 20:54:00+00:00,315.0,0.01,21.0,0.0,13.53,47.59359,-54.27349
2024-04-03 21:04:00+00:00,315.0,0.01,21.0,0.0,13.53,47.59359,-54.27349
2024-04-03 21:14:00+00:00,315.0,0.01,21.0,0.0,13.37,47.59359,-54.27349
2024-04-03 21:24:00+00:00,315.0,0.01,21.0,0.0,13.37,47.59359,-54.27349
2024-04-03 21:34:00+00:00,315.0,0.01,21.0,0.0,13.37,47.59359,-54.27349
2024-04-03 21:44:00+00:00,315.0,0.01,354.0,0.0,13.37,47.59359,-54.27349
2024-04-03 21:54:00+00:00,315.0,0.01,354.0,0.0,13.37,47.59359,-54.27349
2024-04-03 22:04:00+00:00,315.0,0.01,354.0,0.0,13.37,47.59359,-54.27349
2024-04-03 22:14:00+00:00,315.0,0.01,354.0,0.0,12.97,47.59359,-54.27349
2024-04-03 22:24:00+00:00,315.0,0.01,354.0,0.0,12.97,47.59359,-54.27349
2024-04-03 22:34:00+00:00,315.0,0.01,358.0,0.0,12.97,47.59359,-54.27349
2024-04-03 22:44:00+00:00,315.0,0.01,357.0,0.0,12.97,47.59359,-54.27349
2024-04-03 22:54:00+00:00,315.0,0.01,357.0,0.0,12.97,47.59359,-54.27349
2024-04-03 23:04:00+00:00,315.0,0.01,357.0,0.0,12.97,47.59359,-54.27349
2024-04-03 23:14:01+00:00,315.0,0.01,357.0,0.0,12.33,47.59359,-54.27349
2024-04-03 23:24:01+00:00,315.0,0.01,357.0,0.0,12.33,47.59359,-54.27349
2024-04-03 23:34:01+00:00,315.0,0.01,357.0,0.0,12.33,47.59359,-54.27349
2024-04-03 23:44:01+00:00,315.0,0.01,357.0,0.0,12.33,47.59359,-54.27349
2024-04-03 23:54:01+00:00,315.0,0.01,357.0,0.0,12.33,47.59359,-54.27349
